Waarnemingen

Advertentie
Mijn weer
St-Nazaire, Frankrijk (7217): temperatuur & dauwpunt: 17.01.2018 05:00:00 - 23.01.2018 05:00:00 (CET)St-Nazaire, Frankrijk (7217): temperatuur 5cm: 17.01.2018 05:00:00 - 23.01.2018 05:00:00 (CET)St-Nazaire, Frankrijk (7217): temperatuur -20cm: 17.01.2018 05:00:00 - 23.01.2018 05:00:00 (CET)St-Nazaire, Frankrijk (7217): windsnelheid & windstoten: 17.01.2018 05:00:00 - 23.01.2018 05:00:00 (CET)St-Nazaire, Frankrijk (7217): windrichting: 17.01.2018 05:00:00 - 23.01.2018 05:00:00 (CET)St-Nazaire, Frankrijk (7217): luchtdruk: 17.01.2018 05:00:00 - 23.01.2018 05:00:00 (CET)St-Nazaire, Frankrijk (7217): zicht: 17.01.2018 05:00:00 - 23.01.2018 05:00:00 (CET)St-Nazaire, Frankrijk (7217): neerslag: 17.01.2018 05:00:00 - 23.01.2018 05:00:00 (CET)
Datum & Tijd tt [°C] td [°C] tt 5cm [°C] tt -20cm [°C] ff [km/u] ff [kn] fx [km/u] fx [kn] dd ppp [hPa] vv [km] rr [mm]
23.01.2018 05:00:00 10,5 10,2 8,6 10,4 18 10 29 16 Z 1024,0 6 0,0
23.01.2018 04:00:00 9,2 8,9 8,0 10,5 11 6 19 11 Z 1024,6 10 0,0
23.01.2018 03:00:00 8,9 8,6 7,1 10,5 14 8 18 10 Z 1024,8 13 0,0
23.01.2018 02:00:00 7,9 7,8 3,5 10,6 10 6 17 9 ZZW 1025,3 6 0,0
23.01.2018 01:00:00 6,3 6,0 2,8 10,6 10 5 11 6 ZZW 1025,8 0,3 0,0
23.01.2018 00:00:00 6,6 6,3 2,4 10,6 5 3 11 6 ZZW 1025,6 1,1 0,0
22.01.2018 23:00:00 7,3 6,9 2,7 10,6 8 4 14 7 WZW 1025,5 0,2 0,0
22.01.2018 22:00:00 8,1 7,8 3,5 10,6 9 5 13 7 WZW 1025,6 0,8 0,0
22.01.2018 21:00:00 7,7 7,1 4,0 10,6 9 5 12 7 WZW 1025,4 10 0,0
22.01.2018 20:00:00 7,6 6,1 5,4 10,6 9 5 18 10 WZW 1024,8 13 0,0
22.01.2018 19:00:00 10,1 7,9 8,9 10,6 13 7 22 12 W 1024,4 14 0,0
22.01.2018 18:00:00 10,7 8,3 9,7 10,6 16 9 31 17 W 1023,3 16 0,0
22.01.2018 17:00:00 12,3 8,4 12,0 10,6 19 10 33 18 W 1022,6 20 0,0
22.01.2018 16:00:00 12,8 8,3 12,7 10,6 18 10 38 20 W 1021,8 20 0,0
22.01.2018 15:00:00 13,4 8,0 13,8 10,5 23 12 42 23 WNW 1020,9 44 0,0
22.01.2018 14:00:00 12,9 7,1 12,9 10,5 28 15 51 28 WNW 1020,3 44 0,0
22.01.2018 13:00:00 12,6 7,3 11,8 10,5 30 16 58 31 WNW 1019,5 48 0,0
22.01.2018 12:00:00 12,0 8,5 11,9 10,5 33 18 77 42 W 1018,2 19 0,0
22.01.2018 11:00:00 12,6 9,1 12,5 10,5 43 23 76 41 W 1016,7 18 0,0
22.01.2018 10:00:00 13,1 11,0 12,4 10,5 41 22 66 36 W 1015,3 12 0,0
22.01.2018 09:00:00 12,9 11,6 11,9 10,4 46 25 76 41 WZW 1015,2 19 0,0
22.01.2018 08:00:00 12,2 11,7 11,7 10,4 41 22 72 39 WZW 1015,4 4,7 0,2
22.01.2018 07:00:00 12,1 11,3 11,7 10,4 39 21 61 33 WZW 1016,2 4,1 0,0
22.01.2018 06:00:00 12,1 11,3 11,7 10,4 33 18 59 32 WZW 1016,7 15 0,0
22.01.2018 05:00:00 12,2 11,6 11,8 10,4 35 19 61 33 WZW 1017,5 7 0,2
22.01.2018 04:00:00 12,2 11,7 11,8 10,4 36 19 60 32 WZW 1018,0 3,2 0,0
22.01.2018 03:00:00 12,1 11,6 11,8 10,3 35 19 55 30 WZW 1018,2 3,1 0,0
22.01.2018 02:00:00 12,1 11,6 11,8 10,3 37 20 56 31 WZW 1018,3 4,2 0,0
22.01.2018 01:00:00 12,2 11,6 11,8 10,3 34 18 56 30 WZW 1018,8 9 0,0
22.01.2018 00:00:00 12,2 11,7 11,8 10,3 34 19 55 30 W 1019,0 4,1 0,0
21.01.2018 23:00:00 12,0 11,4 11,7 10,2 35 19 58 31 WZW 1018,8 7 0,2
21.01.2018 22:00:00 12,1 11,5 11,6 10,2 32 17 53 29 W 1019,0 3,2 0,0
21.01.2018 21:00:00 12,0 11,2 11,5 10,2 32 17 50 27 W 1019,2 9 0,0
21.01.2018 20:00:00 12,0 11,1 11,5 10,2 34 18 55 30 W 1019,1 7 0,0
21.01.2018 19:00:00 12,0 10,9 11,3 10,1 31 17 47 25 W 1019,2 17 0,0
21.01.2018 18:00:00 11,9 10,8 11,5 10,1 29 16 50 27 W 1019,3 11 0,2
21.01.2018 17:00:00 12,2 11,3 11,8 10,0 27 14 55 30 W 1019,5 10 0,0
21.01.2018 16:00:00 12,2 11,1 11,9 10,0 31 17 51 28 W 1019,4 11 0,0
21.01.2018 15:00:00 12,3 11,4 12,1 10,0 31 17 51 28 W 1019,6 14 0,0
21.01.2018 14:00:00 12,5 11,4 12,0 10,0 32 18 55 30 W 1019,7 16 0,0
21.01.2018 13:00:00 12,3 11,5 12,1 9,9 26 14 44 24 W 1020,4 2,3 0,0
21.01.2018 12:00:00 12,4 11,3 11,9 9,9 27 15 44 24 W 1020,3 49 0,0
21.01.2018 11:00:00 12,3 11,2 12,0 9,9 25 14 48 26 W 1020,0 41 0,0
21.01.2018 10:00:00 12,0 11,1 11,8 9,9 29 15 46 25 W 1019,6 46 0,0
21.01.2018 09:00:00 12,2 11,1 11,8 9,8 29 15 48 26 W 1019,0 60 0,0
21.01.2018 08:00:00 12,1 11,3 11,8 9,8 26 14 55 30 W 1018,5 55 0,0
21.01.2018 07:00:00 12,0 11,4 11,8 9,8 28 15 45 24 W 1018,1 4,3 0,0
21.01.2018 06:00:00 12,0 11,4 11,8 9,8 23 12 39 21 W 1017,8 19 0,0
21.01.2018 05:00:00 12,0 11,4 11,8 9,7 23 13 42 23 W 1017,6 12 0,0
21.01.2018 04:00:00 12,1 11,5 11,8 9,7 24 13 40 21 W 1017,2 10 0,0
21.01.2018 03:00:00 12,1 11,2 11,8 9,7 23 13 42 23 W 1017,0 19 0,0
21.01.2018 02:00:00 12,0 10,7 11,6 9,6 25 13 41 22 W 1016,5 19 0,0
21.01.2018 01:00:00 12,0 10,4 11,6 9,6 26 14 45 24 W 1016,0 44 0,0
21.01.2018 00:00:00 11,9 10,5 11,5 9,5 27 14 50 27 W 1015,1 20 0,0
20.01.2018 23:00:00 12,1 10,7 11,6 9,5 27 15 53 29 W 1014,2 20 0,0
20.01.2018 22:00:00 12,2 10,8 11,8 9,5 34 19 56 30 W 1013,5 18 0,0
20.01.2018 21:00:00 12,4 11,0 11,9 9,4 29 16 56 30 W 1012,8 16 0,0
20.01.2018 20:00:00 12,5 11,2 12,0 9,4 37 20 58 31 W 1011,9 17 0,0
20.01.2018 19:00:00 12,4 11,1 11,9 9,2 35 19 63 34 W 1011,2 19 0,0
20.01.2018 18:00:00 12,5 11,2 11,9 9,2 36 19 66 36 W 1010,3 17 0,0
20.01.2018 17:00:00 12,5 11,6 12,1 9,1 38 20 63 34 W 1009,8 6 0,0
20.01.2018 16:00:00 12,6 11,7 12,2 9,0 40 21 73 40 W 1009,1 7 0,2
20.01.2018 15:00:00 12,7 11,8 12,4 9,0 39 21 71 38 W 1008,7 4,4 0,0
20.01.2018 14:00:00 13,0 11,7 12,5 8,9 37 20 73 39 W 1008,5 15 0,0
20.01.2018 13:00:00 12,9 11,8 12,5 8,9 40 22 74 40 W 1008,5 6 0,2
20.01.2018 12:00:00 13,0 11,7 12,3 8,8 46 25 74 40 W 1008,1 6 0,0
20.01.2018 11:00:00 13,1 11,7 12,2 8,8 48 26 81 44 W 1007,3 9 0,0
20.01.2018 10:00:00 12,7 11,8 11,8 8,8 46 25 76 41 W 1006,8 3,1 0,4
20.01.2018 09:00:00 12,4 11,5 11,5 8,7 45 25 79 43 W 1006,3 4,4 0,6
20.01.2018 08:00:00 12,0 11,2 10,9 8,7 48 26 78 42 W 1006,5 3,5 1,2
20.01.2018 07:00:00 11,2 10,6 9,3 8,7 46 25 75 40 WZW 1006,9 2,4 3,5
20.01.2018 06:00:00 9,5 9,0 8,8 8,8 39 21 64 35 ZZW 1008,5 2,0 5,4
20.01.2018 05:00:00 9,4 8,5 8,5 8,8 27 15 53 28 ZZW 1011,4 5 2,8
20.01.2018 04:00:00 9,3 8,5 8,1 8,8 21 11 36 19 ZW 1013,9 4,7 2,5
20.01.2018 03:00:00 9,1 8,0 8,1 8,8 27 15 45 24 ZW 1015,5 9 0,8
20.01.2018 02:00:00 8,8 7,2 8,1 8,9 16 9 34 18 WZW 1016,8 12 2,6
20.01.2018 01:00:00 9,2 6,8 8,0 8,9 23 12 34 18 ZW 1017,9 44 0,0
20.01.2018 00:00:00 8,5 6,1 5,6 8,9 16 8 22 12 ZW 1018,6 20 0,0
19.01.2018 23:00:00 6,7 4,7 4,6 8,9 11 6 15 8 ZW 1018,9 19 0,0
19.01.2018 22:00:00 6,0 3,5 4,0 8,9 13 7 19 11 WZW 1019,4 39 0,0
19.01.2018 21:00:00 7,0 3,6 3,7 9,0 13 7 23 12 W 1019,4 55 0,0
19.01.2018 20:00:00 5,7 2,2 3,8 8,9 10 5 23 12 WZW 1019,1 48 0,0
19.01.2018 19:00:00 7,1 2,6 5,7 8,9 13 7 26 14 W 1018,6 60 0,0
19.01.2018 18:00:00 7,9 3,2 6,7 8,9 15 8 42 23 W 1018,7 60 0,0
19.01.2018 17:00:00 9,2 4,2 9,4 9,0 15 8 44 24 WNW 1018,4 52 0,0
19.01.2018 16:00:00 10,3 3,6 10,1 9,0 24 13 39 21 W 1017,8 47 0,0
19.01.2018 15:00:00 10,5 3,3 10,5 9,0 21 11 35 19 W 1017,6 20 0,0
19.01.2018 14:00:00 10,2 4,1 12,3 9,0 20 11 36 19 W 1017,9 49 0,0
19.01.2018 13:00:00 9,8 4,2 8,2 9,0 22 12 36 20 W 1018,3 20 0,0
19.01.2018 12:00:00 8,5 4,7 8,2 9,1 15 8 30 16 W 1018,3 55 0,0
19.01.2018 11:00:00 8,7 5,6 8,0 9,1 13 7 24 13 W 1017,8 10 0,0
19.01.2018 10:00:00 7,3 4,9 6,0 9,2 9 5 24 13 WNW 1017,5 10 0,0
19.01.2018 09:00:00 7,6 5,9 6,1 9,2 11 6 20 11 W 1016,8 20 0,0
19.01.2018 08:00:00 7,6 5,6 1,5 9,3 18 10 32 17 W 1016,6 10 1,0
19.01.2018 07:00:00 3,9 2,7 1,8 9,4 9 5 11 6 WZW 1016,3 10 0,0
19.01.2018 06:00:00 4,7 3,7 0,4 9,4 9 5 11 6 WZW 1016,4 10 0,0
19.01.2018 05:00:00 4,6 3,4 0,4 9,4 8 4 8 5 ZW 1016,3 10 0,0
19.01.2018 04:00:00 4,1 2,6 0,5 9,4 5 3 11 6 WZW 1016,6 10 0,0
19.01.2018 03:00:00 5,6 3,4 1,7 9,4 5 3 16 9 W 1016,5 10 0,0
19.01.2018 02:00:00 7,8 4,0 5,7 9,5 9 5 20 11 W 1016,6 10 0,0
19.01.2018 01:00:00 8,1 5,0 6,0 9,5 8 4 18 10 W 1016,4 10 0,0
19.01.2018 00:00:00 8,6 5,9 7,2 9,5 9 5 23 12 W 1016,0 10 0,0
18.01.2018 23:00:00 9,0 5,7 7,4 9,4 13 7 23 12 W 1015,7 10 0,0
18.01.2018 22:00:00 9,1 6,2 8,0 9,4 18 10 30 16 W 1015,6 10 0,0
18.01.2018 21:00:00 9,7 6,4 8,7 9,4 22 12 38 21 W 1015,1 10 0,0
18.01.2018 20:00:00 10,2 6,5 8,8 9,3 24 13 43 23 W 1014,7 10 0,0
18.01.2018 19:00:00 10,6 7,3 9,5 9,3 22 12 45 25 W 1014,1 10 0,0
18.01.2018 18:00:00 11,4 8,3 10,7 9,2 24 13 38 21 W 1013,6 10 0,0
18.01.2018 17:00:00 11,7 9,6 11,4 9,2 24 13 50 27 W 1013,0 16 0,0
18.01.2018 16:00:00 12,4 10,6 11,9 9,1 29 16 59 32 W 1012,6 20 0,0
18.01.2018 15:00:00 12,3 11,7 11,9 9,0 37 20 59 32 WZW 1012,2 4,1 0,2
18.01.2018 14:00:00 12,1 11,5 11,8 9,0 35 19 55 30 WZW 1012,7 2,6 0,4
18.01.2018 13:00:00 12,2 11,4 11,7 9,0 34 19 63 34 WZW 1013,5 5 0,2
18.01.2018 12:00:00 11,9 11,3 11,3 8,9 36 20 57 31 WZW 1013,8 3,2 0,2
18.01.2018 11:00:00 11,7 11,1 11,0 8,8 35 19 63 34 WZW 1013,9 7 1,4
18.01.2018 10:00:00 11,4 10,8 10,8 8,9 37 20 67 36 WZW 1013,7 4,4 1,0
18.01.2018 09:00:00 11,2 10,6 10,6 8,8 39 21 60 33 WZW 1013,6 3,4 1,0
18.01.2018 08:00:00 11,2 10,3 10,4 8,8 39 21 67 36 WZW 1013,6 6 0,2
18.01.2018 07:00:00 10,9 10,0 10,3 8,8 35 19 63 34 WZW 1013,9 5 0,4
18.01.2018 06:00:00 10,9 9,8 10,2 8,8 37 20 56 31 WZW 1014,2 10 0,0
18.01.2018 05:00:00 10,7 9,8 9,9 8,7 36 19 62 33 WZW 1015,1 11 0,4
18.01.2018 04:00:00 10,5 9,6 9,7 8,7 37 20 63 34 WZW 1015,7 5 0,4
18.01.2018 03:00:00 10,6 9,0 9,4 8,7 37 20 61 33 WZW 1016,1 4,3 0,2
18.01.2018 02:00:00 10,2 8,8 9,1 8,7 34 18 64 35 WZW 1016,9 10 0,0
18.01.2018 01:00:00 10,0 8,1 8,5 8,7 39 21 59 32 WZW 1017,7 10 0,0
18.01.2018 00:00:00 9,4 7,7 8,5 8,7 26 14 56 31 WZW 1018,4 10 0,2
17.01.2018 23:00:00 10,4 6,7 9,3 8,7 34 18 51 27 WZW 1019,0 18 0,0
17.01.2018 22:00:00 10,0 6,5 8,3 8,7 29 16 42 23 WZW 1019,5 10 0,0
17.01.2018 21:00:00 9,8 6,5 7,5 8,7 22 12 38 20 WZW 1020,1 16 0,0
17.01.2018 20:00:00 8,4 5,3 6,8 8,7 21 11 30 16 WZW 1020,5 10 0,0
17.01.2018 19:00:00 8,5 4,5 7,3 8,7 18 10 34 19 W 1020,9 10 0,0
17.01.2018 18:00:00 8,3 4,7 7,3 8,7 21 11 41 22 W 1021,2 10 0,0
17.01.2018 17:00:00 9,1 5,1 8,7 8,7 28 15 43 23 W 1021,4 10 0,0
17.01.2018 16:00:00 10,1 3,8 11,4 8,7 29 16 50 27 W 1021,5 10 0,0
17.01.2018 15:00:00 9,8 2,9 9,9 8,7 26 14 45 24 W 1021,4 42 0,0
17.01.2018 14:00:00 10,5 4,0 10,9 8,8 26 14 49 26 W 1021,3 10 0,0
17.01.2018 13:00:00 10,0 2,8 10,9 8,8 28 15 45 24 W 1021,6 10 0,0
17.01.2018 12:00:00 9,5 2,6 10,2 8,9 26 14 56 30 W 1021,8 20 0,0
17.01.2018 11:00:00 8,9 2,0 8,4 8,9 27 15 48 26 WNW 1021,1 20 0,0
17.01.2018 10:00:00 7,8 2,0 6,0 8,9 22 12 41 22 W 1019,8 20 0,0
17.01.2018 09:00:00 6,8 1,7 5,3 9,0 25 13 50 27 W 1018,8 45 0,0
17.01.2018 08:00:00 7,1 1,8 5,8 9,0 24 13 41 22 W 1017,6 10 0,0
17.01.2018 07:00:00 7,4 1,7 6,2 9,1 29 16 54 29 W 1016,8 10 0,0
17.01.2018 06:00:00 7,2 1,7 6,1 9,1 28 15 56 31 WNW 1015,7 10 0,0
17.01.2018 05:00:00 7,3 2,4 6,2 9,2 29 16 49 26 W 1014,8 10 0,0

tt = temperatuur
td = dauwpunt
tt 5cm = temperatuur 5cm
tt -20cm = temperatuur -20cm
ff = windsnelheid
fx = windstoten
dd = windrichting
ppp = luchtdruk
vv = zicht
rr = neerslag

Weerstations in de omgeving